Location: Gro� Glienicke
(52.4675°N, 13.1079°E)
Time: 18:49:11
(UTC+00:00)

Cosmos 1825 - Pass Details

Date: 06 July 2020
Orbit: 502 x 509 km, 82.5° (Epoch: 11 August)

Event Time Altitude Azimuth Distance (km) Brightness Sun altitude
Exits shadow 23:14:43 10° 240° (WSW) 1,741 4.6 -15.0°
Reaches altitude 10° 23:14:45 10° 240° (WSW) 1,728 4.6 -15.0°
Maximum altitude 23:17:45 22° 293° (WNW) 1,156 4.2 -15.0°
Drops below altitude 10° 23:20:47 10° 346° (NNW) 1,741 6.1 -15.0°
Sets 23:23:18 0° 2° (N) 2,633 7.7 -14.9°
